Time,TemperatureF,DewpointF,PressureIn,WindDirection,WindDirectionDegrees,WindSpeedMPH,WindSpeedGustMPH,Humidity,HourlyPrecipIn,Conditions,Clouds,dailyrainin,SoftwareType,DateUTC
2013-08-08 00:01:00,68.0,68.0,30.08,SSE,158,0.0,0.0,100,0.00,,---,0.00,VWS V14.00,2013-08-08 04:01:00,
2013-08-08 00:06:00,67.8,67.8,30.08,SSE,158,0.0,0.0,100,0.00,,---,0.00,VWS V14.00,2013-08-08 04:06:00,
2013-08-08 00:11:00,67.8,67.8,30.08,SSE,158,0.0,0.0,100,0.00,,---,0.00,VWS V14.00,2013-08-08 04:11:00,
2013-08-08 00:16:00,67.6,67.6,30.09,SSE,158,0.0,0.0,100,0.00,,---,0.00,VWS V14.00,2013-08-08 04:16:00,
2013-08-08 00:21:00,67.6,67.6,30.09,SSE,158,0.0,0.0,100,0.00,,---,0.00,VWS V14.00,2013-08-08 04:21:00,
2013-08-08 00:26:00,67.6,67.6,30.09,SSE,158,0.0,0.0,100,0.00,,---,0.00,VWS V14.00,2013-08-08 04:26:00,
2013-08-08 00:31:00,67.2,67.2,30.08,SSE,158,0.0,0.0,100,0.00,,---,0.00,VWS V14.00,2013-08-08 04:31:00,
2013-08-08 00:36:00,67.2,67.2,30.08,SSE,158,0.0,0.0,100,0.00,,---,0.00,VWS V14.00,2013-08-08 04:36:00,
2013-08-08 00:41:00,67.2,67.2,30.08,SSE,158,0.0,0.0,100,0.00,,---,0.00,VWS V14.00,2013-08-08 04:41:00,
2013-08-08 00:46:00,67.2,67.2,30.08,SSE,158,0.0,0.0,100,0.00,,---,0.00,VWS V14.00,2013-08-08 04:46:00,
2013-08-08 00:51:00,67.2,67.2,30.08,SSE,158,0.0,0.0,100,0.00,,---,0.00,VWS V14.00,2013-08-08 04:51:00,
2013-08-08 00:56:00,67.2,67.2,30.08,SSE,158,0.0,0.0,100,0.00,,---,0.00,VWS V14.00,2013-08-08 04:56:00,
2013-08-08 01:01:00,67.2,67.2,30.08,SSE,158,0.0,0.0,100,0.00,,---,0.00,VWS V14.00,2013-08-08 05:01:00,
2013-08-08 01:06:00,67.2,67.2,30.08,SSE,158,0.0,0.0,100,0.00,,---,0.00,VWS V14.00,2013-08-08 05:06:00,
2013-08-08 01:11:00,67.2,67.2,30.08,SSE,158,0.0,0.0,100,0.00,,---,0.00,VWS V14.00,2013-08-08 05:11:00,
2013-08-08 01:16:00,67.2,67.2,30.08,SSE,158,0.0,0.0,100,0.00,,---,0.00,VWS V14.00,2013-08-08 05:16:00,
2013-08-08 01:21:00,67.2,67.2,30.08,SSE,158,0.0,0.0,100,0.00,,---,0.00,VWS V14.00,2013-08-08 05:21:00,
2013-08-08 01:26:00,67.2,67.2,30.08,SSE,158,0.0,0.0,100,0.00,,---,0.00,VWS V14.00,2013-08-08 05:26:00,
2013-08-08 01:31:00,67.2,67.2,30.08,SSE,158,0.0,0.0,100,0.00,,---,0.00,VWS V14.00,2013-08-08 05:31:00,
2013-08-08 01:36:00,67.2,67.2,30.08,SSE,158,0.0,0.0,100,0.00,,---,0.00,VWS V14.00,2013-08-08 05:36:00,
2013-08-08 01:41:00,67.2,67.2,30.08,SSE,158,0.0,0.0,100,0.00,,---,0.00,VWS V14.00,2013-08-08 05:41:00,
2013-08-08 01:46:00,67.2,67.2,30.07,SSE,158,0.0,0.0,100,0.00,,---,0.00,VWS V14.00,2013-08-08 05:46:00,
2013-08-08 01:51:00,67.2,67.2,30.07,SSE,158,0.0,0.0,100,0.00,,---,0.00,VWS V14.00,2013-08-08 05:51:00,
2013-08-08 01:56:00,67.2,67.2,30.07,SSE,158,0.0,0.0,100,0.00,,---,0.00,VWS V14.00,2013-08-08 05:56:00,
2013-08-08 02:01:00,67.2,67.2,30.07,SSE,158,0.0,0.0,100,0.00,,---,0.00,VWS V14.00,2013-08-08 06:01:00,
2013-08-08 02:06:00,67.2,67.2,30.07,SSE,158,0.0,0.0,100,0.00,,---,0.00,VWS V14.00,2013-08-08 06:06:00,
2013-08-08 02:11:00,67.2,67.2,30.07,SSE,158,0.0,0.0,100,0.00,,---,0.00,VWS V14.00,2013-08-08 06:11:00,
2013-08-08 02:17:00,67.2,67.2,30.07,SSE,158,0.0,0.0,100,0.00,,---,0.00,VWS V14.00,2013-08-08 06:17:00,
2013-08-08 02:22:00,67.2,67.2,30.07,SSE,158,0.0,0.0,100,0.00,,---,0.00,VWS V14.00,2013-08-08 06:22:00,
2013-08-08 02:27:00,67.2,67.2,30.06,SSE,158,0.0,0.0,100,0.00,,---,0.00,VWS V14.00,2013-08-08 06:27:00,
2013-08-08 02:32:00,67.2,67.2,30.06,SSE,158,0.0,0.0,100,0.00,,---,0.00,VWS V14.00,2013-08-08 06:32:00,
2013-08-08 02:37:00,67.2,67.2,30.07,SSE,158,0.0,0.0,100,0.00,,---,0.00,VWS V14.00,2013-08-08 06:37:00,
2013-08-08 02:42:00,67.2,67.2,30.06,SSE,158,0.0,0.0,100,0.00,,---,0.00,VWS V14.00,2013-08-08 06:42:00,
2013-08-08 02:47:00,67.4,67.4,30.06,SSE,158,0.0,0.0,100,0.00,,---,0.00,VWS V14.00,2013-08-08 06:47:00,
2013-08-08 02:52:00,67.6,67.6,30.07,SSE,158,0.0,0.0,100,0.00,,---,0.00,VWS V14.00,2013-08-08 06:52:00,
2013-08-08 02:57:00,67.6,67.6,30.06,SSE,158,0.0,0.0,100,0.00,,---,0.00,VWS V14.00,2013-08-08 06:57:00,
2013-08-08 03:02:00,67.6,67.6,30.06,SSE,158,0.0,0.0,100,0.00,,---,0.00,VWS V14.00,2013-08-08 07:02:00,
2013-08-08 03:07:00,67.6,67.6,30.06,SSE,158,0.0,0.0,100,0.00,,---,0.00,VWS V14.00,2013-08-08 07:07:00,
2013-08-08 03:12:00,67.6,67.6,30.06,SSE,158,0.0,0.0,100,0.00,,---,0.00,VWS V14.00,2013-08-08 07:12:00,
2013-08-08 03:17:00,67.6,67.6,30.06,SSE,158,0.0,0.0,100,0.00,,---,0.00,VWS V14.00,2013-08-08 07:17:00,
2013-08-08 03:22:00,67.6,67.6,30.06,SSE,158,0.0,0.0,100,0.00,,---,0.00,VWS V14.00,2013-08-08 07:22:00,
2013-08-08 03:27:00,67.6,67.6,30.06,SSE,158,0.0,0.0,100,0.00,,---,0.00,VWS V14.00,2013-08-08 07:27:00,
2013-08-08 03:32:00,67.6,67.6,30.06,SSE,158,0.0,0.0,100,0.00,,---,0.00,VWS V14.00,2013-08-08 07:32:00,
2013-08-08 03:37:00,67.6,67.6,30.06,SSE,158,0.0,0.0,100,0.00,,---,0.00,VWS V14.00,2013-08-08 07:37:00,
2013-08-08 03:42:00,67.6,67.6,30.06,SSE,158,0.0,0.0,100,0.00,,---,0.00,VWS V14.00,2013-08-08 07:42:00,
2013-08-08 03:47:00,67.6,67.6,30.06,SSE,158,0.0,0.0,100,0.00,,---,0.00,VWS V14.00,2013-08-08 07:47:00,
2013-08-08 03:52:00,67.6,67.6,30.06,SSE,158,0.0,0.0,100,0.00,,---,0.00,VWS V14.00,2013-08-08 07:52:00,
2013-08-08 03:57:00,67.6,67.6,30.06,SSE,158,0.0,0.0,100,0.00,,---,0.00,VWS V14.00,2013-08-08 07:57:00,
2013-08-08 04:02:00,67.6,67.6,30.07,SSE,158,0.0,0.0,100,0.00,,---,0.00,VWS V14.00,2013-08-08 08:02:00,
2013-08-08 04:07:00,67.6,67.6,30.06,SSE,158,0.0,0.0,100,0.00,,---,0.00,VWS V14.00,2013-08-08 08:07:00,
2013-08-08 04:12:00,67.6,67.6,30.06,SSE,158,0.0,0.0,100,0.00,,---,0.00,VWS V14.00,2013-08-08 08:12:00,
2013-08-08 04:17:00,67.6,67.6,30.06,SSE,158,0.0,0.0,100,0.00,,---,0.00,VWS V14.00,2013-08-08 08:17:00,
2013-08-08 04:22:00,67.4,67.4,30.06,SSE,158,0.0,0.0,100,0.00,,---,0.00,VWS V14.00,2013-08-08 08:22:00,
2013-08-08 04:27:00,67.2,67.2,30.06,SSE,158,0.0,0.0,100,0.00,,---,0.00,VWS V14.00,2013-08-08 08:27:00,
2013-08-08 04:32:00,67.2,67.2,30.05,SSE,158,0.0,0.0,100,0.00,,---,0.00,VWS V14.00,2013-08-08 08:32:00,
2013-08-08 04:37:00,67.2,67.2,30.06,SSE,158,0.0,0.0,100,0.00,,---,0.00,VWS V14.00,2013-08-08 08:37:00,
2013-08-08 04:42:00,67.1,67.1,30.06,SSE,158,0.0,0.0,100,0.00,,---,0.00,VWS V14.00,2013-08-08 08:42:00,
2013-08-08 04:47:00,67.1,67.1,30.06,SSE,158,0.0,0.0,100,0.00,,---,0.00,VWS V14.00,2013-08-08 08:47:00,
2013-08-08 04:52:00,67.1,67.1,30.06,SSE,158,0.0,0.0,100,0.00,,---,0.00,VWS V14.00,2013-08-08 08:52:00,
2013-08-08 04:57:00,67.1,67.1,30.06,SSE,158,0.0,0.0,100,0.00,,---,0.00,VWS V14.00,2013-08-08 08:57:00,
2013-08-08 05:02:00,67.1,67.1,30.06,SSE,158,0.0,0.0,100,0.00,,---,0.00,VWS V14.00,2013-08-08 09:02:00,
2013-08-08 05:07:00,67.1,67.1,30.06,SSE,158,0.0,0.0,100,0.00,,---,0.00,VWS V14.00,2013-08-08 09:07:00,
2013-08-08 05:12:00,67.1,67.1,30.06,SSE,158,0.0,0.0,100,0.00,,---,0.00,VWS V14.00,2013-08-08 09:12:00,
2013-08-08 05:17:00,67.1,67.1,30.06,SSE,158,0.0,0.0,100,0.00,,---,0.00,VWS V14.00,2013-08-08 09:17:00,
2013-08-08 05:22:00,67.1,67.1,30.06,SSE,158,0.0,0.0,100,0.00,,---,0.00,VWS V14.00,2013-08-08 09:22:00,
2013-08-08 05:27:00,67.1,67.1,30.06,SSE,158,0.0,0.0,100,0.00,,---,0.00,VWS V14.00,2013-08-08 09:27:00,
2013-08-08 05:32:00,67.1,67.1,30.06,SSE,158,0.0,0.0,100,0.00,,---,0.00,VWS V14.00,2013-08-08 09:32:00,
2013-08-08 05:37:00,67.1,67.1,30.06,SSE,158,0.0,0.0,100,0.00,,---,0.00,VWS V14.00,2013-08-08 09:37:00,
2013-08-08 05:42:00,67.1,67.1,30.06,SSE,158,0.0,0.0,100,0.00,,---,0.00,VWS V14.00,2013-08-08 09:42:00,
2013-08-08 05:47:00,67.1,67.1,30.06,SSE,158,0.0,0.0,100,0.00,,---,0.00,VWS V14.00,2013-08-08 09:47:00,
2013-08-08 05:52:00,67.2,67.2,30.06,SSE,158,0.0,0.0,100,0.00,,---,0.00,VWS V14.00,2013-08-08 09:52:00,
2013-08-08 05:57:00,67.2,67.2,30.06,SSE,158,0.0,0.0,100,0.00,,---,0.00,VWS V14.00,2013-08-08 09:57:00,
2013-08-08 06:02:00,67.2,67.2,30.06,SSE,158,0.0,0.0,100,0.00,,---,0.00,VWS V14.00,2013-08-08 10:02:00,
2013-08-08 06:07:00,67.2,67.2,30.06,SSE,158,0.0,0.0,100,0.00,,---,0.00,VWS V14.00,2013-08-08 10:07:00,
2013-08-08 06:12:00,67.1,67.1,30.06,SSE,158,0.0,0.0,100,0.00,,---,0.00,VWS V14.00,2013-08-08 10:12:00,
2013-08-08 06:17:00,67.1,67.1,30.06,SSE,158,0.0,0.0,100,0.00,,---,0.00,VWS V14.00,2013-08-08 10:17:00,
2013-08-08 06:22:00,67.1,67.1,30.06,SSE,158,0.0,0.0,100,0.00,,---,0.00,VWS V14.00,2013-08-08 10:22:00,
2013-08-08 06:27:00,67.2,67.2,30.06,SSE,158,0.0,0.0,100,0.00,,---,0.00,VWS V14.00,2013-08-08 10:27:00,
2013-08-08 06:32:00,67.2,67.2,30.06,SSE,158,0.0,0.0,100,0.00,,---,0.00,VWS V14.00,2013-08-08 10:32:00,
2013-08-08 06:37:00,67.2,67.2,30.06,SSE,158,0.0,0.0,100,0.00,,---,0.00,VWS V14.00,2013-08-08 10:37:00,
2013-08-08 06:42:00,67.1,67.1,30.06,SSE,158,0.0,0.0,100,0.00,,---,0.00,VWS V14.00,2013-08-08 10:42:00,
2013-08-08 06:47:00,67.2,67.2,30.06,SSE,158,0.0,0.0,100,0.00,,---,0.00,VWS V14.00,2013-08-08 10:47:00,
2013-08-08 06:52:00,67.2,67.2,30.06,SSE,158,0.0,0.0,100,0.00,,---,0.00,VWS V14.00,2013-08-08 10:52:00,
2013-08-08 06:57:00,67.1,67.1,30.06,SSE,158,0.0,0.0,100,0.00,,---,0.00,VWS V14.00,2013-08-08 10:57:00,
2013-08-08 07:02:00,67.2,67.2,30.06,SSE,158,0.0,0.0,100,0.00,,---,0.00,VWS V14.00,2013-08-08 11:02:00,
2013-08-08 07:07:00,67.2,67.2,30.07,SSE,158,0.0,0.0,100,0.00,,---,0.00,VWS V14.00,2013-08-08 11:07:00,
2013-08-08 07:13:00,67.2,67.2,30.07,SSE,158,0.0,0.0,100,0.00,,---,0.00,VWS V14.00,2013-08-08 11:13:00,
2013-08-08 07:18:00,67.2,67.2,30.07,SSE,158,0.0,0.0,100,0.00,,---,0.00,VWS V14.00,2013-08-08 11:18:00,
2013-08-08 07:23:00,67.2,67.2,30.08,SSE,158,0.0,0.0,100,0.00,,---,0.00,VWS V14.00,2013-08-08 11:23:00,
2013-08-08 07:28:00,67.6,67.6,30.08,SSE,158,0.0,0.0,100,0.00,,---,0.00,VWS V14.00,2013-08-08 11:28:00,
2013-08-08 07:33:00,67.6,67.6,30.08,SSE,158,0.0,0.0,100,0.00,,---,0.00,VWS V14.00,2013-08-08 11:33:00,
2013-08-08 07:38:00,67.8,67.8,30.08,SSE,158,0.0,0.0,100,0.00,,---,0.00,VWS V14.00,2013-08-08 11:38:00,
2013-08-08 07:43:00,67.8,67.8,30.07,SSE,158,0.0,0.0,100,0.00,,---,0.00,VWS V14.00,2013-08-08 11:43:00,
2013-08-08 07:48:00,67.8,67.8,30.07,SSE,158,0.0,0.0,100,0.00,,---,0.00,VWS V14.00,2013-08-08 11:48:00,
2013-08-08 07:53:00,68.1,68.1,30.08,SSE,158,0.0,0.0,100,0.00,,---,0.00,VWS V14.00,2013-08-08 11:53:00,
2013-08-08 07:58:00,68.5,68.5,30.08,SSE,158,0.0,0.0,100,0.00,,---,0.00,VWS V14.00,2013-08-08 11:58:00,
2013-08-08 08:03:00,68.7,68.7,30.08,SSE,158,0.0,0.0,100,0.00,,---,0.00,VWS V14.00,2013-08-08 12:03:00,
2013-08-08 08:08:00,68.9,68.9,30.08,SSE,158,0.0,0.0,100,0.00,,---,0.00,VWS V14.00,2013-08-08 12:08:00,
2013-08-08 08:13:00,69.0,69.0,30.08,SSE,158,0.0,0.0,100,0.00,,---,0.00,VWS V14.00,2013-08-08 12:13:00,
2013-08-08 08:18:00,69.4,69.4,30.09,SSE,158,0.0,0.0,100,0.00,,---,0.00,VWS V14.00,2013-08-08 12:18:00,
2013-08-08 08:23:00,69.6,69.6,30.09,SSE,158,0.0,0.0,100,0.00,,---,0.00,VWS V14.00,2013-08-08 12:23:00,
2013-08-08 08:28:00,69.6,69.6,30.09,SSE,158,0.0,0.0,100,0.00,,---,0.00,VWS V14.00,2013-08-08 12:28:00,
2013-08-08 08:33:00,69.9,69.9,30.09,SSE,158,0.0,0.0,100,0.00,,---,0.00,VWS V14.00,2013-08-08 12:33:00,
2013-08-08 08:38:00,70.1,70.1,30.09,SSE,158,0.0,0.0,100,0.00,,---,0.00,VWS V14.00,2013-08-08 12:38:00,
2013-08-08 08:43:00,70.1,70.1,30.09,SSE,158,0.0,0.0,100,0.00,,---,0.00,VWS V14.00,2013-08-08 12:43:00,
2013-08-08 08:48:00,70.1,70.1,30.09,SSE,158,0.0,0.0,100,0.00,,---,0.00,VWS V14.00,2013-08-08 12:48:00,
2013-08-08 08:53:00,70.1,70.1,30.09,SSE,158,0.0,0.0,100,0.00,,---,0.00,VWS V14.00,2013-08-08 12:53:00,
2013-08-08 08:58:00,70.1,70.1,30.09,SSE,158,0.0,0.0,100,0.00,,---,0.00,VWS V14.00,2013-08-08 12:58:00,
2013-08-08 09:03:00,70.1,70.1,30.09,SSE,158,0.0,0.0,100,0.00,,---,0.00,VWS V14.00,2013-08-08 13:03:00,
2013-08-08 09:08:00,70.1,70.1,30.09,SSE,158,0.0,0.0,100,0.00,,---,0.00,VWS V14.00,2013-08-08 13:08:00,
2013-08-08 09:13:00,70.5,70.5,30.09,SSE,158,0.0,0.0,100,0.00,,---,0.00,VWS V14.00,2013-08-08 13:13:00,
2013-08-08 09:18:00,70.8,70.8,30.09,SSE,158,0.0,0.0,100,0.00,,---,0.00,VWS V14.00,2013-08-08 13:18:00,
2013-08-08 09:23:00,71.4,71.4,30.09,SSE,158,0.0,0.0,100,0.00,,---,0.00,VWS V14.00,2013-08-08 13:23:00,
2013-08-08 09:28:00,71.9,71.9,30.09,SSE,158,0.0,0.0,100,0.00,,---,0.00,VWS V14.00,2013-08-08 13:28:00,
2013-08-08 09:33:00,72.3,72.3,30.09,SSE,158,0.0,0.0,100,0.00,,---,0.00,VWS V14.00,2013-08-08 13:33:00,
2013-08-08 09:38:00,72.5,72.5,30.09,SSE,158,0.0,0.0,100,0.00,,---,0.00,VWS V14.00,2013-08-08 13:38:00,
2013-08-08 09:43:00,72.6,72.6,30.09,SSE,158,0.0,0.0,100,0.00,,---,0.00,VWS V14.00,2013-08-08 13:43:00,
2013-08-08 09:48:00,73.0,73.0,30.09,SSE,158,0.0,0.0,100,0.00,,---,0.00,VWS V14.00,2013-08-08 13:48:00,
2013-08-08 09:54:00,73.0,73.0,30.09,SSE,158,0.0,0.0,100,0.00,,---,0.00,VWS V14.00,2013-08-08 13:54:00,
2013-08-08 09:59:00,73.9,73.9,30.09,SSE,158,0.0,0.0,100,0.00,,---,0.00,VWS V14.00,2013-08-08 13:59:00,
2013-08-08 10:04:00,74.8,74.8,30.09,SSE,158,0.0,0.0,100,0.00,,---,0.00,VWS V14.00,2013-08-08 14:04:00,
2013-08-08 10:09:00,75.2,75.2,30.09,SE,135,0.0,0.0,100,0.00,,---,0.00,VWS V14.00,2013-08-08 14:09:00,
2013-08-08 10:14:00,75.7,75.7,30.09,South,180,0.0,0.0,100,0.00,,---,0.00,VWS V14.00,2013-08-08 14:14:00,
2013-08-08 10:19:00,75.9,75.9,30.09,South,180,0.0,0.0,100,0.00,,---,0.00,VWS V14.00,2013-08-08 14:19:00,
2013-08-08 10:24:00,76.4,76.4,30.09,SW,225,0.0,0.0,100,0.00,,---,0.00,VWS V14.00,2013-08-08 14:24:00,
2013-08-08 10:29:00,76.4,76.1,30.09,WSW,248,0.0,0.0,99,0.00,,---,0.00,VWS V14.00,2013-08-08 14:29:00,
2013-08-08 10:34:00,76.4,75.8,30.09,South,180,0.0,0.0,98,0.00,,---,0.00,VWS V14.00,2013-08-08 14:34:00,
2013-08-08 10:39:00,76.8,76.2,30.09,SSE,158,0.0,0.0,98,0.00,,---,0.00,VWS V14.00,2013-08-08 14:39:00,
2013-08-08 10:44:00,77.1,76.5,30.09,South,180,0.0,0.0,98,0.00,,---,0.00,VWS V14.00,2013-08-08 14:44:00,
2013-08-08 10:49:00,77.5,76.6,30.10,SSE,158,0.0,0.0,97,0.00,,---,0.00,VWS V14.00,2013-08-08 14:49:00,
2013-08-08 10:54:00,78.0,76.8,30.10,WSW,248,0.0,0.0,96,0.00,,---,0.00,VWS V14.00,2013-08-08 14:54:00,
2013-08-08 10:59:00,78.8,77.6,30.10,SSE,158,0.0,0.0,96,0.00,,---,0.00,VWS V14.00,2013-08-08 14:59:00,
2013-08-08 11:04:00,79.7,77.8,30.09,South,180,0.0,0.0,94,0.00,,---,0.00,VWS V14.00,2013-08-08 15:04:00,
2013-08-08 11:09:00,80.7,77.8,30.09,SE,135,0.0,0.0,91,0.00,,---,0.00,VWS V14.00,2013-08-08 15:09:00,
2013-08-08 11:14:00,81.1,78.2,30.10,WSW,248,0.0,0.0,91,0.00,,---,0.00,VWS V14.00,2013-08-08 15:14:00,
2013-08-08 11:19:00,81.1,77.9,30.10,WSW,248,0.0,0.0,90,0.00,,---,0.00,VWS V14.00,2013-08-08 15:19:00,
2013-08-08 11:24:00,81.1,77.9,30.10,WSW,248,0.0,0.0,90,0.00,,---,0.00,VWS V14.00,2013-08-08 15:24:00,
2013-08-08 11:29:00,80.7,77.5,30.09,WSW,248,0.0,0.0,90,0.00,,---,0.00,VWS V14.00,2013-08-08 15:29:00,
2013-08-08 11:34:00,80.4,77.2,30.09,WSW,248,0.0,0.0,90,0.00,,---,0.00,VWS V14.00,2013-08-08 15:34:00,
2013-08-08 11:39:00,79.8,76.6,30.09,West,270,0.0,0.0,90,0.00,,---,0.00,VWS V14.00,2013-08-08 15:39:00,
2013-08-08 11:44:00,80.2,77.0,30.09,SW,225,0.0,0.0,90,0.00,,---,0.00,VWS V14.00,2013-08-08 15:44:00,
2013-08-08 11:49:00,81.1,78.2,30.09,West,270,0.0,0.0,91,0.00,,---,0.00,VWS V14.00,2013-08-08 15:49:00,
2013-08-08 11:54:00,81.5,77.9,30.09,SW,225,0.0,0.0,89,0.00,,---,0.00,VWS V14.00,2013-08-08 15:54:00,
2013-08-08 11:59:00,81.6,77.4,30.09,West,270,0.0,0.0,87,0.00,,---,0.00,VWS V14.00,2013-08-08 15:59:00,
2013-08-08 12:04:00,82.0,77.8,30.09,SE,135,0.0,0.0,87,0.00,,---,0.00,VWS V14.00,2013-08-08 16:04:00,
2013-08-08 12:09:00,82.7,77.7,30.09,South,180,0.0,0.0,85,0.00,,---,0.00,VWS V14.00,2013-08-08 16:09:00,
2013-08-08 12:14:00,83.4,78.8,30.09,SSW,202,0.0,0.0,86,0.00,,---,0.00,VWS V14.00,2013-08-08 16:14:00,
2013-08-08 12:19:00,84.5,79.8,30.09,SSW,202,0.0,0.0,86,0.00,,---,0.00,VWS V14.00,2013-08-08 16:19:00,
2013-08-08 12:24:00,85.4,79.7,30.09,SSE,158,0.0,0.0,83,0.00,,---,0.00,VWS V14.00,2013-08-08 16:24:00,
2013-08-08 12:29:00,85.8,79.7,30.09,WSW,248,0.0,0.0,82,0.00,,---,0.00,VWS V14.00,2013-08-08 16:29:00,
2013-08-08 12:34:00,86.1,79.6,30.09,NNW,338,0.0,0.0,81,0.00,,---,0.00,VWS V14.00,2013-08-08 16:34:00,
2013-08-08 12:39:00,86.1,79.2,30.09,SSE,158,0.0,0.0,80,0.00,,---,0.00,VWS V14.00,2013-08-08 16:39:00,
2013-08-08 12:44:00,86.0,79.1,30.09,SSE,158,0.0,0.0,80,0.00,,---,0.00,VWS V14.00,2013-08-08 16:44:00,
2013-08-08 12:49:00,85.8,78.9,30.09,South,180,0.0,0.0,80,0.00,,---,0.00,VWS V14.00,2013-08-08 16:49:00,
2013-08-08 12:54:00,85.8,78.9,30.09,East,90,0.0,0.0,80,0.00,,---,0.00,VWS V14.00,2013-08-08 16:54:00,
2013-08-08 12:59:00,85.4,78.5,30.09,SW,225,0.0,0.0,80,0.00,,---,0.00,VWS V14.00,2013-08-08 16:59:00,
2013-08-08 13:04:00,85.2,78.7,30.09,SSW,202,0.0,0.0,81,0.00,,---,0.00,VWS V14.00,2013-08-08 17:04:00,
2013-08-08 13:09:00,85.6,79.1,30.09,WNW,292,0.0,0.0,81,0.00,,---,0.00,VWS V14.00,2013-08-08 17:09:00,
2013-08-08 13:14:00,86.5,79.6,30.09,WSW,248,0.0,0.0,80,0.00,,---,0.00,VWS V14.00,2013-08-08 17:14:00,
2013-08-08 13:19:00,86.7,79.0,30.09,SE,135,0.0,0.0,78,0.00,,---,0.00,VWS V14.00,2013-08-08 17:19:00,
2013-08-08 13:24:00,86.0,78.7,30.09,SSW,202,0.0,0.0,79,0.00,,---,0.00,VWS V14.00,2013-08-08 17:24:00,
2013-08-08 13:29:00,85.6,78.7,30.09,WSW,248,0.0,0.0,80,0.00,,---,0.00,VWS V14.00,2013-08-08 17:29:00,
2013-08-08 13:34:00,84.9,78.0,30.09,WSW,248,0.0,0.0,80,0.00,,---,0.00,VWS V14.00,2013-08-08 17:34:00,
2013-08-08 13:39:00,84.0,77.2,30.09,SE,135,0.0,0.0,80,0.00,,---,0.00,VWS V14.00,2013-08-08 17:39:00,
2013-08-08 13:44:00,83.3,76.9,30.08,SE,135,0.0,0.0,81,0.00,,---,0.00,VWS V14.00,2013-08-08 17:44:00,
2013-08-08 13:49:00,82.5,76.4,30.08,East,90,0.0,0.0,82,0.00,,---,0.00,VWS V14.00,2013-08-08 17:49:00,
2013-08-08 13:54:00,81.6,75.6,30.08,NW,315,0.0,0.0,82,0.00,,---,0.00,VWS V14.00,2013-08-08 17:54:00,
2013-08-08 13:59:00,81.1,75.4,30.08,ENE,68,0.0,0.0,83,0.00,,---,0.00,VWS V14.00,2013-08-08 17:59:00,
2013-08-08 14:04:00,80.7,75.4,30.09,North,0,0.0,0.0,84,0.00,,---,0.00,VWS V14.00,2013-08-08 18:04:00,
2013-08-08 14:09:00,80.0,75.1,30.09,WSW,248,0.0,0.0,85,0.00,,---,0.00,VWS V14.00,2013-08-08 18:09:00,
2013-08-08 14:15:00,79.8,74.9,30.09,SW,225,0.0,0.0,85,0.00,,---,0.00,VWS V14.00,2013-08-08 18:15:00,
2013-08-08 14:20:00,80.0,75.4,30.09,WSW,248,0.0,0.0,86,0.00,,---,0.00,VWS V14.00,2013-08-08 18:20:00,
2013-08-08 14:25:00,79.8,74.9,30.09,SW,225,0.0,0.0,85,0.00,,---,0.00,VWS V14.00,2013-08-08 18:25:00,
2013-08-08 14:30:00,80.4,75.8,30.09,NE,45,0.0,0.0,86,0.00,,---,0.00,VWS V14.00,2013-08-08 18:30:00,
2013-08-08 14:35:00,80.4,75.8,30.09,SSE,158,0.0,0.0,86,0.00,,---,0.00,VWS V14.00,2013-08-08 18:35:00,
2013-08-08 14:40:00,80.6,76.0,30.08,West,270,0.0,0.0,86,0.00,,---,0.00,VWS V14.00,2013-08-08 18:40:00,
2013-08-08 14:45:00,80.6,76.0,30.08,ESE,112,0.0,0.0,86,0.00,,---,0.00,VWS V14.00,2013-08-08 18:45:00,
2013-08-08 14:50:00,80.6,76.0,30.08,South,180,0.0,0.0,86,0.00,,---,0.00,VWS V14.00,2013-08-08 18:50:00,
2013-08-08 14:55:00,80.6,76.0,30.08,South,180,0.0,0.0,86,0.00,,---,0.00,VWS V14.00,2013-08-08 18:55:00,
2013-08-08 15:00:00,80.7,76.1,30.08,ENE,68,0.0,0.0,86,0.00,,---,0.00,VWS V14.00,2013-08-08 19:00:00,
2013-08-08 15:05:00,80.7,76.1,30.08,West,270,0.0,0.0,86,0.00,,---,0.00,VWS V14.00,2013-08-08 19:05:00,
2013-08-08 15:10:00,81.1,76.5,30.07,WSW,248,0.0,0.0,86,0.00,,---,0.00,VWS V14.00,2013-08-08 19:10:00,
2013-08-08 15:15:00,81.1,76.2,30.07,WNW,292,0.0,0.0,85,0.00,,---,0.00,VWS V14.00,2013-08-08 19:15:00,
2013-08-08 15:20:00,81.1,76.2,30.07,WSW,248,0.0,0.0,85,0.00,,---,0.00,VWS V14.00,2013-08-08 19:20:00,
2013-08-08 15:25:00,81.3,76.4,30.07,South,180,0.0,0.0,85,0.00,,---,0.00,VWS V14.00,2013-08-08 19:25:00,
2013-08-08 15:30:00,82.0,77.1,30.07,ENE,68,0.0,0.0,85,0.00,,---,0.00,VWS V14.00,2013-08-08 19:30:00,
2013-08-08 15:35:00,82.2,76.5,30.07,SSW,202,0.0,0.0,83,0.00,,---,0.00,VWS V14.00,2013-08-08 19:35:00,
2013-08-08 15:40:00,82.2,76.5,30.07,SE,135,0.0,0.0,83,0.00,,---,0.00,VWS V14.00,2013-08-08 19:40:00,
2013-08-08 15:45:00,82.0,76.3,30.07,ENE,68,0.0,0.0,83,0.00,,---,0.00,VWS V14.00,2013-08-08 19:45:00,
2013-08-08 15:50:00,81.6,75.9,30.07,South,180,0.0,0.0,83,0.00,,---,0.00,VWS V14.00,2013-08-08 19:50:00,
2013-08-08 15:55:00,81.5,76.2,30.06,SSW,202,0.0,0.0,84,0.00,,---,0.00,VWS V14.00,2013-08-08 19:55:00,
2013-08-08 16:00:00,81.6,76.7,30.07,South,180,0.0,0.0,85,0.00,,---,0.00,VWS V14.00,2013-08-08 20:00:00,
2013-08-08 16:05:00,81.8,76.8,30.06,South,180,0.0,0.0,85,0.00,,---,0.00,VWS V14.00,2013-08-08 20:05:00,
2013-08-08 16:10:00,81.8,76.5,30.06,NE,45,0.0,0.0,84,0.00,,---,0.00,VWS V14.00,2013-08-08 20:10:00,
2013-08-08 16:15:00,82.0,76.7,30.06,NNW,338,0.0,0.0,84,0.00,,---,0.00,VWS V14.00,2013-08-08 20:15:00,
2013-08-08 16:21:00,82.0,76.3,30.06,East,90,0.0,0.0,83,0.00,,---,0.00,VWS V14.00,2013-08-08 20:21:00,
2013-08-08 16:26:00,82.2,76.9,30.06,South,180,0.0,0.0,84,0.00,,---,0.00,VWS V14.00,2013-08-08 20:26:00,
2013-08-08 16:31:00,82.0,76.3,30.05,SSE,158,0.0,0.0,83,0.00,,---,0.00,VWS V14.00,2013-08-08 20:31:00,
2013-08-08 16:36:00,81.5,76.6,30.05,SSE,158,0.0,0.0,85,0.00,,---,0.00,VWS V14.00,2013-08-08 20:36:00,
2013-08-08 16:41:00,81.5,76.6,30.05,SE,135,0.0,0.0,85,0.00,,---,0.00,VWS V14.00,2013-08-08 20:41:00,
2013-08-08 16:46:00,81.6,76.7,30.05,ESE,112,0.0,0.0,85,0.00,,---,0.00,VWS V14.00,2013-08-08 20:46:00,
2013-08-08 16:51:00,81.5,76.6,30.05,ESE,112,0.0,0.0,85,0.00,,---,0.00,VWS V14.00,2013-08-08 20:51:00,
2013-08-08 16:56:00,81.1,76.2,30.05,ESE,112,0.0,0.0,85,0.00,,---,0.00,VWS V14.00,2013-08-08 20:56:00,
2013-08-08 17:01:00,80.7,76.1,30.05,West,270,0.0,0.0,86,0.00,,---,0.00,VWS V14.00,2013-08-08 21:01:00,
2013-08-08 17:06:00,80.4,76.2,30.05,SSE,158,0.0,0.0,87,0.00,,---,0.00,VWS V14.00,2013-08-08 21:06:00,
2013-08-08 17:11:00,80.4,76.2,30.05,SSW,202,0.0,0.0,87,0.00,,---,0.00,VWS V14.00,2013-08-08 21:11:00,
2013-08-08 17:16:00,80.6,76.4,30.05,NW,315,0.0,0.0,87,0.00,,---,0.00,VWS V14.00,2013-08-08 21:16:00,
2013-08-08 17:21:00,80.4,76.2,30.05,SSW,202,0.0,0.0,87,0.00,,---,0.00,VWS V14.00,2013-08-08 21:21:00,
2013-08-08 17:26:00,80.6,76.4,30.05,SW,225,0.0,0.0,87,0.00,,---,0.00,VWS V14.00,2013-08-08 21:26:00,
2013-08-08 17:31:00,80.7,76.5,30.05,West,270,0.0,0.0,87,0.00,,---,0.00,VWS V14.00,2013-08-08 21:31:00,
2013-08-08 17:36:00,80.7,76.1,30.05,West,270,0.0,0.0,86,0.00,,---,0.00,VWS V14.00,2013-08-08 21:36:00,
2013-08-08 17:41:00,80.6,76.0,30.05,North,0,0.0,0.0,86,0.00,,---,0.00,VWS V14.00,2013-08-08 21:41:00,
2013-08-08 17:46:00,80.6,76.4,30.05,NNW,338,0.0,0.0,87,0.00,,---,0.00,VWS V14.00,2013-08-08 21:46:00,
2013-08-08 17:51:00,80.6,76.4,30.05,NNW,338,0.0,0.0,87,0.00,,---,0.00,VWS V14.00,2013-08-08 21:51:00,
2013-08-08 17:56:00,80.4,75.8,30.05,West,270,0.0,0.0,86,0.00,,---,0.00,VWS V14.00,2013-08-08 21:56:00,
2013-08-08 18:01:00,80.4,75.8,30.05,NW,315,0.0,0.0,86,0.00,,---,0.00,VWS V14.00,2013-08-08 22:01:00,
2013-08-08 18:06:00,80.2,76.0,30.06,SSW,202,0.0,0.0,87,0.00,,---,0.00,VWS V14.00,2013-08-08 22:06:00,
2013-08-08 18:11:00,79.8,75.6,30.06,SSW,202,0.0,0.0,87,0.00,,---,0.00,VWS V14.00,2013-08-08 22:11:00,
2013-08-08 18:17:00,79.5,75.3,30.06,SSW,202,0.0,0.0,87,0.00,,---,0.00,VWS V14.00,2013-08-08 22:17:00,
2013-08-08 18:22:00,79.3,75.4,30.06,SSW,202,0.0,0.0,88,0.00,,---,0.00,VWS V14.00,2013-08-08 22:22:00,
2013-08-08 18:27:00,78.6,74.8,30.06,SSW,202,0.0,0.0,88,0.00,,---,0.00,VWS V14.00,2013-08-08 22:27:00,
2013-08-08 18:32:00,78.4,74.9,30.07,SSW,202,0.0,0.0,89,0.00,,---,0.00,VWS V14.00,2013-08-08 22:32:00,
2013-08-08 18:37:00,78.2,75.0,30.06,SSW,202,0.0,0.0,90,0.00,,---,0.00,VWS V14.00,2013-08-08 22:37:00,
2013-08-08 18:42:00,78.0,74.8,30.06,SSW,202,0.0,0.0,90,0.00,,---,0.00,VWS V14.00,2013-08-08 22:42:00,
2013-08-08 18:47:00,77.7,74.9,30.06,SSW,202,0.0,0.0,91,0.00,,---,0.00,VWS V14.00,2013-08-08 22:47:00,
2013-08-08 18:52:00,77.5,74.7,30.07,SSW,202,0.0,0.0,91,0.00,,---,0.00,VWS V14.00,2013-08-08 22:52:00,
2013-08-08 18:57:00,77.1,74.3,30.06,SSW,202,0.0,0.0,91,0.00,,---,0.00,VWS V14.00,2013-08-08 22:57:00,
2013-08-08 19:02:00,76.8,74.3,30.07,SSW,202,0.0,0.0,92,0.00,,---,0.00,VWS V14.00,2013-08-08 23:02:00,
2013-08-08 19:07:00,76.8,74.3,30.07,SSW,202,0.0,0.0,92,0.00,,---,0.00,VWS V14.00,2013-08-08 23:07:00,
2013-08-08 19:12:00,76.6,74.4,30.07,SSW,202,0.0,0.0,93,0.00,,---,0.00,VWS V14.00,2013-08-08 23:12:00,
2013-08-08 19:17:00,76.2,74.0,30.07,SSW,202,0.0,0.0,93,0.00,,---,0.00,VWS V14.00,2013-08-08 23:17:00,
2013-08-08 19:22:00,76.1,73.9,30.07,SSW,202,0.0,0.0,93,0.00,,---,0.00,VWS V14.00,2013-08-08 23:22:00,
2013-08-08 19:27:00,76.1,74.2,30.07,SSW,202,0.0,0.0,94,0.00,,---,0.00,VWS V14.00,2013-08-08 23:27:00,
2013-08-08 19:33:00,75.9,74.1,30.06,SSW,202,0.0,0.0,94,0.00,,---,0.00,VWS V14.00,2013-08-08 23:33:00,
2013-08-08 19:38:00,75.9,74.1,30.07,SSW,202,0.0,0.0,94,0.00,,---,0.00,VWS V14.00,2013-08-08 23:38:00,
2013-08-08 19:43:00,75.9,74.1,30.07,SSW,202,0.0,0.0,94,0.00,,---,0.00,VWS V14.00,2013-08-08 23:43:00,
2013-08-08 19:48:00,75.7,74.2,30.07,SSW,202,0.0,0.0,95,0.00,,---,0.00,VWS V14.00,2013-08-08 23:48:00,
2013-08-08 19:53:00,75.5,73.7,30.07,SSW,202,0.0,0.0,94,0.00,,---,0.00,VWS V14.00,2013-08-08 23:53:00,
2013-08-08 19:58:00,75.0,73.5,30.07,SSW,202,0.0,0.0,95,0.00,,---,0.00,VWS V14.00,2013-08-08 23:58:00,
2013-08-08 20:03:00,75.0,73.5,30.07,SSW,202,0.0,0.0,95,0.00,,---,0.00,VWS V14.00,2013-08-09 00:03:00,
2013-08-08 20:08:00,75.0,73.5,30.07,SSW,202,0.0,0.0,95,0.00,,---,0.00,VWS V14.00,2013-08-09 00:08:00,
2013-08-08 20:13:00,74.6,73.4,30.07,SSW,202,0.0,0.0,96,0.00,,---,0.00,VWS V14.00,2013-08-09 00:13:00,
2013-08-08 20:19:00,74.4,73.2,30.07,SSW,202,0.0,0.0,96,0.00,,---,0.00,VWS V14.00,2013-08-09 00:19:00,
2013-08-08 20:24:00,74.1,72.9,30.08,SSW,202,0.0,0.0,96,0.00,,---,0.00,VWS V14.00,2013-08-09 00:24:00,
2013-08-08 20:29:00,73.9,72.7,30.08,SSW,202,0.0,0.0,96,0.00,,---,0.00,VWS V14.00,2013-08-09 00:29:00,
2013-08-08 20:35:00,73.7,72.8,30.08,SSW,202,0.0,0.0,97,0.00,,---,0.00,VWS V14.00,2013-08-09 00:35:00,
2013-08-08 20:40:00,73.5,72.6,30.08,SSW,202,0.0,0.0,97,0.00,,---,0.00,VWS V14.00,2013-08-09 00:40:00,
2013-08-08 20:45:00,73.2,72.3,30.08,SSW,202,0.0,0.0,97,0.00,,---,0.00,VWS V14.00,2013-08-09 00:45:00,
2013-08-08 20:50:00,73.2,72.3,30.08,SSW,202,0.0,0.0,97,0.00,,---,0.00,VWS V14.00,2013-08-09 00:50:00,
2013-08-08 20:55:00,73.0,72.1,30.08,SSW,202,0.0,0.0,97,0.00,,---,0.00,VWS V14.00,2013-08-09 00:55:00,
2013-08-08 21:00:00,72.6,71.7,30.07,SSW,202,0.0,0.0,97,0.00,,---,0.00,VWS V14.00,2013-08-09 01:00:00,
2013-08-08 21:05:00,72.6,71.7,30.07,SSW,202,0.0,0.0,97,0.00,,---,0.00,VWS V14.00,2013-08-09 01:05:00,
2013-08-08 21:10:00,72.5,71.9,30.07,SSW,202,0.0,0.0,98,0.00,,---,0.00,VWS V14.00,2013-08-09 01:10:00,
2013-08-08 21:15:00,72.3,71.7,30.08,SSW,202,0.0,0.0,98,0.00,,---,0.00,VWS V14.00,2013-08-09 01:15:00,
2013-08-08 21:21:00,72.1,71.5,30.08,SSW,202,0.0,0.0,98,0.00,,---,0.00,VWS V14.00,2013-08-09 01:21:00,
2013-08-08 21:26:00,72.1,71.5,30.08,SSW,202,0.0,0.0,98,0.00,,---,0.00,VWS V14.00,2013-08-09 01:26:00,
2013-08-08 21:31:00,71.9,71.3,30.08,SSW,202,0.0,0.0,98,0.00,,---,0.00,VWS V14.00,2013-08-09 01:31:00,
2013-08-08 21:36:00,71.7,71.1,30.08,SSW,202,0.0,0.0,98,0.00,,---,0.00,VWS V14.00,2013-08-09 01:36:00,
2013-08-08 21:41:00,71.4,71.1,30.08,SSW,202,0.0,0.0,99,0.00,,---,0.00,VWS V14.00,2013-08-09 01:41:00,
2013-08-08 21:46:00,71.4,71.1,30.08,SSW,202,0.0,0.0,99,0.00,,---,0.00,VWS V14.00,2013-08-09 01:46:00,
2013-08-08 21:51:00,71.2,70.9,30.08,SSW,202,0.0,0.0,99,0.00,,---,0.00,VWS V14.00,2013-08-09 01:51:00,
2013-08-08 21:56:00,71.2,70.9,30.09,SSW,202,0.0,0.0,99,0.00,,---,0.00,VWS V14.00,2013-08-09 01:56:00,
2013-08-08 22:01:00,71.2,70.9,30.09,SSW,202,0.0,0.0,99,0.00,,---,0.00,VWS V14.00,2013-08-09 02:01:00,
2013-08-08 22:06:00,70.8,70.8,30.08,SSW,202,0.0,0.0,100,0.00,,---,0.00,VWS V14.00,2013-08-09 02:06:00,
2013-08-08 22:11:00,70.8,70.8,30.08,SE,135,0.0,0.0,100,0.00,,---,0.00,VWS V14.00,2013-08-09 02:11:00,
2013-08-08 22:16:00,70.8,70.8,30.08,SE,135,0.0,0.0,100,0.00,,---,0.00,VWS V14.00,2013-08-09 02:16:00,
2013-08-08 22:21:00,70.8,70.8,30.08,SE,135,0.0,0.0,100,0.00,,---,0.00,VWS V14.00,2013-08-09 02:21:00,
2013-08-08 22:26:00,70.8,70.8,30.08,SE,135,0.0,0.0,100,0.00,,---,0.00,VWS V14.00,2013-08-09 02:26:00,
2013-08-08 22:31:00,70.8,70.8,30.07,SE,135,0.0,0.0,100,0.00,,---,0.00,VWS V14.00,2013-08-09 02:31:00,
2013-08-08 22:36:00,70.8,70.8,30.07,SE,135,0.0,0.0,100,0.00,,---,0.00,VWS V14.00,2013-08-09 02:36:00,
2013-08-08 22:41:00,70.8,70.8,30.07,SE,135,0.0,0.0,100,0.00,,---,0.00,VWS V14.00,2013-08-09 02:41:00,
2013-08-08 22:46:00,70.8,70.8,30.07,SE,135,0.0,0.0,100,0.00,,---,0.00,VWS V14.00,2013-08-09 02:46:00,
2013-08-08 22:51:00,70.8,70.8,30.07,SE,135,0.0,0.0,100,0.00,,---,0.00,VWS V14.00,2013-08-09 02:51:00,
2013-08-08 22:57:00,70.7,70.7,30.07,SE,135,0.0,0.0,100,0.00,,---,0.00,VWS V14.00,2013-08-09 02:57:00,
2013-08-08 23:02:00,70.5,70.5,30.07,SE,135,0.0,0.0,100,0.00,,---,0.00,VWS V14.00,2013-08-09 03:02:00,
2013-08-08 23:33:00,70.1,70.1,30.07,SE,135,0.0,0.0,100,0.00,,---,0.00,VWS V14.00,2013-08-09 03:33:00,
2013-08-08 23:38:00,69.9,69.9,30.07,SE,135,0.0,0.0,100,0.00,,---,0.00,VWS V14.00,2013-08-09 03:38:00,
2013-08-08 23:43:00,69.9,69.9,30.07,SE,135,0.0,0.0,100,0.00,,---,0.00,VWS V14.00,2013-08-09 03:43:00,
2013-08-08 23:48:00,69.8,69.8,30.07,SE,135,0.0,0.0,100,0.00,,---,0.00,VWS V14.00,2013-08-09 03:48:00,
2013-08-08 23:53:00,69.8,69.8,30.07,SE,135,0.0,0.0,100,0.00,,---,0.00,VWS V14.00,2013-08-09 03:53:00,
2013-08-08 23:58:00,69.6,69.6,30.07,SE,135,0.0,0.0,100,0.00,,---,0.00,VWS V14.00,2013-08-09 03:58:00,